[[{"header":{"parameterUnit":"m.s-1","parameterCategory":1,"la1":30.2991,"la2":30.254,"lo1":-89.0895,"lo2":-89.0444,"dy":0.0017,"dx":0.0017,"nx":28,"ny":28,"refTime":"2025-04-03T21:00:00:Z","depth":0,"parameterNumber":2,"parameterNumberName":"U-component_of_WINDS"},"data":[0,0,0,0,0,0,0,0,0,0,0,0,0,0,0,0,0,0,0,0,0,0,0,0,0,0,0,0,0,0,0,0,0,0,0,0,0,0,0,0,0,0,0,0,0,0,0,0,0,0,0,0,0,0,0,0,0,0,-4.3015,-4.3016,0,-4.3127,-4.3128,-4.313,-4.3141,-4.314,-4.3139,-4.3138,-4.3252,-4.3256,-4.326,0,0,0,0,0,0,0,0,0,0,0,0,0,-4.281,-4.2813,-4.3014,-4.3016,-4.3017,-4.3127,-4.3128,-4.313,-4.3142,-4.314,-4.3139,-4.3137,-4.3251,-4.3256,-4.3261,0,0,0,0,0,0,0,0,0,0,0,0,0,-4.2908,-4.2814,-4.3014,-4.3036,-4.3039,-4.3127,-4.3129,-4.313,-4.3142,-4.314,-4.3138,-4.3137,-4.3249,-4.3255,-4.3262,-4.3334,0,0,-4.328,-4.3283,0,0,0,0,0,0,0,0,-4.2902,-4.2915,-4.3032,-4.3035,-4.3039,-4.3118,-4.3098,-4.3199,-4.3142,-4.3103,-4.3138,-4.3136,-4.3209,-4.3219,-4.3243,-4.334,-4.3345,-4.3281,-4.3285,-4.3287,-4.3289,0,0,0,0,0,0,0,-4.2895,-4.2911,-4.3059,-4.3033,-4.3038,-4.3041,-4.3053,-4.3117,-4.3164,-4.3106,-4.3107,-4.3121,-4.3211,-4.3237,-4.3246,-4.3346,-4.3281,-4.3286,-4.329,-4.3293,-4.3508,-4.351,0,0,0,0,0,0,-4.2885,-4.2905,-4.3055,-4.3062,-4.2965,-4.3046,-4.3059,-4.3095,-4.3164,-4.3173,-4.3122,-4.3121,-4.3228,-4.3239,-4.325,-4.3339,-4.3287,-4.3293,-4.3297,-4.3506,-4.3508,-4.351,0,0,0,0,0,0,-4.288,-4.2898,-4.3051,-4.2984,-4.3004,-4.3051,-4.3091,-4.3098,-4.3124,-4.3176,-4.3184,-4.3141,-4.3227,-4.3242,-4.3313,-4.3344,-4.3296,-4.3302,-4.3503,-4.3507,-4.3509,-4.3518,0,0,0,0,0,0,-4.2874,-4.2896,-4.2924,-4.2985,-4.3007,-4.3112,-4.3093,-4.3101,-4.3135,-4.3135,-4.3195,-4.3204,-4.3227,-4.3304,-4.3319,-4.3351,-4.3306,-4.3501,-4.3505,-4.3508,-4.3516,-4.3521,-4.3526,0,0,0,0,0,-4.2867,-4.2922,-4.2926,-4.2944,-4.3043,-4.3114,-4.3127,-4.3152,-4.3137,-4.3166,-4.3199,-4.3202,-4.3338,-4.3311,-4.3329,-4.3363,-4.3499,-4.3504,-4.3508,-4.3513,-4.352,-4.3526,0,0,0,0,0,0,-4.2864,-4.293,-4.2935,-4.3011,-4.3057,-4.3116,-4.3152,-4.3159,-4.3209,-4.3206,-4.3236,-4.325,-4.332,-4.3349,-4.3318,-4.3437,-4.3417,-4.3425,-4.3415,-4.3422,-4.3427,-4.3418,-4.3312,0,0,0,0,0,-4.2872,-4.2924,-4.2979,-4.3041,-4.3064,-4.3104,-4.3136,-4.3152,-4.32,-4.3219,-4.3257,-4.3304,-4.3357,-4.3392,-4.3444,-4.3521,-4.3534,-4.3553,-4.3558,-4.3562,-4.3568,-4.3611,-4.362,-4.3525,-4.3525,-4.3525,0,0,-4.2889,-4.2932,-4.2963,-4.3042,-4.3079,-4.3132,-4.312,-4.3177,-4.3216,-4.3228,-4.3297,-4.3327,-4.3381,-4.3456,-4.3491,-4.3482,-4.3598,-4.3568,-4.3571,-4.3575,-4.3616,-4.3625,-4.3633,-4.3528,-4.3528,-4.3527,0,0,-4.2948,-4.2986,-4.3041,-4.3079,-4.3135,-4.3162,-4.3175,-4.3234,-4.3254,-4.3325,-4.3335,-4.3382,-4.3474,-4.3512,-4.3543,-4.3617,-4.3621,-4.3633,-4.366,-4.3701,-4.3709,-4.3716,-4.3741,-4.375,-4.364,-4.364,-4.364,0,-4.2962,-4.3042,-4.3069,-4.3125,-4.3159,-4.3174,-4.323,-4.3265,-4.3336,-4.3359,-4.3349,-4.3464,-4.3501,-4.3585,-4.3603,-4.3628,-4.3644,-4.3625,-4.3706,-4.3713,-4.3719,-4.3744,-4.3753,-4.3641,-4.3641,-4.364,-4.364,0,-4.3056,-4.3111,-4.315,-4.3217,-4.3256,-4.3312,-4.3348,-4.3385,-4.3398,-4.3425,-4.3497,-4.3543,-4.3604,-4.3626,-4.3639,-4.3711,-4.3704,-4.37,-4.368,-4.3729,-4.3752,-4.3762,-4.3642,-4.3642,-4.3641,-4.3641,0,0,-4.3114,-4.3197,-4.321,-4.3241,-4.3305,-4.3348,-4.3405,-4.3466,-4.3496,-4.3545,-4.3592,-4.367,-4.3667,-4.3702,-4.372,-4.3756,-4.3811,-4.3747,-4.3749,-4.3756,-4.3893,-4.3894,-4.3905,-4.3815,-4.3817,-4.3819,-4.3888,0,-4.3178,-4.328,-4.3306,-4.3392,-4.3444,-4.3458,-4.3508,-4.3553,-4.358,-4.3628,-4.3659,-4.3713,-4.3705,-4.3726,-4.3763,-4.3796,-4.3839,-4.3792,-4.3859,-4.3861,-4.3843,-4.3917,-4.3919,-4.3982,-4.3897,-4.3899,-4.39,0,-4.3267,-4.3317,-4.3408,-4.3465,-4.3488,-4.3532,-4.3589,-4.3635,-4.3686,-4.3704,-4.3744,-4.3759,-4.3819,-4.3798,-4.388,-4.3848,-4.3878,-4.3899,-4.3902,-4.3907,-4.3882,-4.3924,-4.4003,-4.4012,-4.3915,-4.3914,-4.3913,0,-4.3298,-4.3389,-4.3455,-4.3481,-4.355,-4.3581,-4.3611,-4.366,-4.3695,-4.3746,-4.3768,-4.3825,-4.3856,-4.39,-4.393,-4.3912,-4.401,-4.3991,-4.4026,-4.4025,-4.4044,-4.4042,-4.4127,-4.4066,-4.4065,-4.4065,-4.4065,0,-4.3366,-4.3421,-4.347,-4.351,-4.3572,-4.3603,-4.3664,-4.3695,-4.3739,-4.3785,-4.3802,-4.3846,-4.3883,-4.3932,-4.3956,-4.402,-4.4034,-4.405,-4.4055,-4.4048,-4.4045,-4.4066,-4.4062,-4.4068,-4.4067,-4.4067,-4.4066,0,-4.3411,-4.3446,-4.3519,-4.3578,-4.3595,-4.3638,-4.3689,-4.3729,-4.3758,-4.3817,-4.3832,-4.3878,-4.3936,-4.397,-4.4044,-4.406,-4.4131,-4.4135,-4.4113,-4.4116,-4.4147,-4.4143,-4.4248,-4.4262,-4.4192,-4.4193,-4.4193,0,-4.3451,-4.3494,-4.3558,-4.359,-4.3621,-4.3673,-4.3709,-4.3741,-4.3778,-4.3839,-4.3872,-4.3931,-4.398,-4.4073,-4.4112,-4.4169,-4.4173,-4.4206,-4.4182,-4.4173,-4.4172,-4.4169,-4.4173,-4.421,-4.421,-4.4211,-4.4211,0,-4.3519,-4.3534,-4.3585,-4.3642,-4.3684,-4.373,-4.3776,-4.3802,-4.3842,-4.3882,-4.3942,-4.398,-4.4055,-4.4114,-4.4174,-4.4205,-4.4215,-4.4219,-4.4229,-4.4221,-4.4206,-4.4213,-4.4123,-4.4216,-4.4215,-4.4215,-4.4215,-4.4214,-4.3562,-4.36,-4.3651,-4.3707,-4.3745,-4.3788,-4.3828,-4.3863,-4.3913,-4.3977,-4.3993,-4.4056,-4.4106,-4.4188,-4.4221,-4.427,-4.4265,-4.428,-4.4284,-4.4287,-4.4287,-4.42,-4.4281,-4.4281,-4.4281,-4.4281,-4.4281,0,-4.363,-4.3663,-4.3714,-4.3778,-4.3822,-4.3828,-4.388,-4.3916,-4.3971,-4.4017,-4.4065,-4.4134,-4.4191,-4.4235,-4.4294,-4.4325,-4.4331,-4.4339,-4.4336,-4.4343,-4.4289,-4.4274,-4.4333,-4.4333,-4.4333,-4.4333,-4.4333,-4.4333,-4.367,-4.3735,-4.3756,-4.384,-4.3874,-4.3935,-4.3964,-4.4003,-4.4041,-4.4116,-4.4164,-4.4193,-4.4238,-4.4301,-4.4353,-4.4365,-4.4385,-4.4392,-4.4404,-4.4353,-4.4347,-4.4342,-4.4327,-4.4397,-4.4397,-4.4454,-4.4455,-4.4455]},{"header":{"parameterUnit":"m.s-1","parameterCategory":1,"la1":30.2991,"la2":30.254,"lo1":-89.0895,"lo2":-89.0444,"dy":0.0017,"dx":0.0017,"nx":28,"ny":28,"refTime":"2025-04-03T21:00:00:Z","depth":0,"parameterNumber":3,"parameterNumberName":"V-component_of_WINDS"},"data":[0,0,0,0,0,0,0,0,0,0,0,0,0,0,0,0,0,0,0,0,0,0,0,0,0,0,0,0,0,0,0,0,0,0,0,0,0,0,0,0,0,0,0,0,0,0,0,0,0,0,0,0,0,0,0,0,0,0,5.6326,5.6327,0,5.6466,5.6467,5.6469,5.6456,5.6454,5.6452,5.645,5.6592,5.6597,5.6603,0,0,0,0,0,0,0,0,0,0,0,0,0,5.6047,5.6053,5.6325,5.6327,5.6329,5.6465,5.6467,5.6469,5.6457,5.6454,5.6451,5.6449,5.659,5.6597,5.6604,0,0,0,0,0,0,0,0,0,0,0,0,0,5.6176,5.6054,5.6325,5.6339,5.6342,5.6465,5.6467,5.647,5.6457,5.6454,5.6451,5.6448,5.6588,5.6596,5.6605,5.6722,0,0,5.6631,5.6635,0,0,0,0,0,0,0,0,5.6169,5.6186,5.6335,5.6338,5.6342,5.644,5.6421,5.6554,5.6458,5.6413,5.645,5.6446,5.6544,5.6556,5.6589,5.6729,5.6735,5.6632,5.6637,5.6641,5.6643,0,0,0,0,0,0,0,5.616,5.618,5.6381,5.6338,5.6341,5.6339,5.6353,5.6446,5.6495,5.6417,5.6416,5.6433,5.6545,5.6581,5.6592,5.6737,5.6632,5.6639,5.6645,5.6648,5.6984,5.6987,0,0,0,0,0,0,5.6148,5.6173,5.6376,5.6385,5.6246,5.6346,5.6363,5.6412,5.6494,5.6503,5.6436,5.6432,5.6568,5.6582,5.6597,5.6743,5.6641,5.6649,5.6654,5.698,5.6984,5.6988,0,0,0,0,0,0,5.6142,5.6166,5.6371,5.6279,5.6305,5.6354,5.641,5.6416,5.6452,5.6508,5.6517,5.6464,5.6566,5.6585,5.6692,5.6747,5.6653,5.6661,5.6975,5.6981,5.6986,5.7033,0,0,0,0,0,0,5.6134,5.6164,5.6209,5.628,5.631,5.6463,5.6413,5.6421,5.6467,5.6464,5.6537,5.6545,5.6565,5.6679,5.6701,5.6758,5.6667,5.6971,5.6978,5.6985,5.7027,5.704,5.7051,0,0,0,0,0,5.6124,5.6216,5.6211,5.6236,5.6367,5.6467,5.6483,5.6504,5.6472,5.6518,5.6554,5.6543,5.6738,5.669,5.6714,5.6775,5.6967,5.6976,5.6984,5.7022,5.7037,5.705,0,0,0,0,0,0,5.6148,5.6225,5.6221,5.6338,5.6396,5.6464,5.6523,5.652,5.6587,5.6581,5.6603,5.662,5.6728,5.6762,5.6708,5.6894,5.6848,5.6862,5.6869,5.6884,5.6895,5.6885,5.6675,0,0,0,0,0,5.6168,5.6242,5.6305,5.6402,5.6432,5.6473,5.6516,5.6528,5.6588,5.6612,5.6656,5.6715,5.679,5.6838,5.691,5.7032,5.7048,5.7085,5.7097,5.7106,5.7118,5.7187,5.7205,5.7016,5.7016,5.7016,0,0,5.6208,5.6259,5.6304,5.6409,5.6455,5.6532,5.6493,5.6575,5.6633,5.6625,5.6729,5.6764,5.6831,5.6947,5.7,5.6978,5.7174,5.7117,5.7124,5.7131,5.7198,5.7216,5.7232,5.7022,5.7021,5.702,0,0,5.6321,5.6366,5.6454,5.6502,5.6572,5.6599,5.662,5.669,5.6713,5.6818,5.6814,5.6883,5.701,5.7059,5.7101,5.7235,5.7229,5.7258,5.732,5.7387,5.7402,5.7416,5.7466,5.7483,5.7269,5.7269,5.727,0,5.6362,5.6478,5.6499,5.6584,5.6631,5.6628,5.6717,5.6762,5.6852,5.6885,5.6859,5.7022,5.7066,5.7195,5.7228,5.7261,5.7287,5.725,5.7398,5.7412,5.7425,5.7473,5.7491,5.7273,5.7272,5.7272,5.7272,0,5.6526,5.6607,5.6669,5.6759,5.6812,5.6898,5.6933,5.6985,5.6992,5.7022,5.713,5.7184,5.7268,5.7299,5.7306,5.7429,5.7414,5.7393,5.7348,5.7446,5.7491,5.751,5.7277,5.7276,5.7275,5.7274,0,0,5.6658,5.6759,5.6782,5.6824,5.6902,5.6966,5.7052,5.7135,5.718,5.7243,5.7318,5.7427,5.7409,5.7456,5.7469,5.7528,5.7634,5.75,5.7502,5.7525,5.7775,5.7792,5.7812,5.7629,5.7633,5.7636,5.777,0,5.6781,5.6936,5.6958,5.7095,5.7171,5.717,5.7246,5.7303,5.7334,5.7403,5.7436,5.7514,5.7484,5.7513,5.7571,5.7608,5.7684,5.7599,5.77,5.7703,5.7684,5.7836,5.7853,5.7977,5.7788,5.7791,5.7793,0,5.6944,5.7013,5.7158,5.7229,5.7262,5.733,5.7409,5.7475,5.754,5.7558,5.7612,5.7618,5.7709,5.7659,5.7786,5.7727,5.777,5.7795,5.78,5.7811,5.7755,5.7853,5.8017,5.8036,5.7821,5.7819,5.7817,0,5.7029,5.7158,5.7262,5.7297,5.7381,5.743,5.7467,5.7529,5.7579,5.7648,5.768,5.7758,5.7802,5.7862,5.789,5.785,5.8016,5.7967,5.8034,5.8034,5.807,5.8067,5.8245,5.8095,5.8094,5.8094,5.8094,0,5.7164,5.7253,5.7301,5.7365,5.7466,5.7491,5.7589,5.7625,5.7681,5.7752,5.7756,5.7823,5.7854,5.7926,5.7948,5.8051,5.807,5.8088,5.8093,5.8089,5.8087,5.8118,5.811,5.8099,5.8098,5.8097,5.8096,0,5.7276,5.7311,5.7425,5.7496,5.7516,5.7588,5.7649,5.7712,5.7742,5.7833,5.7856,5.7903,5.7989,5.8022,5.8126,5.8141,5.826,5.8257,5.8239,5.824,5.8306,5.83,5.8511,5.8541,5.8369,5.8371,5.8372,0,5.736,5.7429,5.7509,5.7558,5.7597,5.7675,5.7726,5.7754,5.7807,5.7887,5.7941,5.8026,5.8096,5.8233,5.8277,5.8357,5.8357,5.8426,5.8369,5.8364,5.8361,5.8357,5.8365,5.8436,5.8438,5.844,5.8441,0,5.7508,5.7523,5.7596,5.7677,5.7738,5.7802,5.7865,5.7905,5.7942,5.8001,5.8089,5.8144,5.8251,5.8337,5.8419,5.8458,5.8457,5.8458,5.8478,5.8475,5.8463,5.8473,5.8269,5.8453,5.8452,5.8451,5.8451,5.845,5.761,5.7673,5.7739,5.7821,5.7872,5.7931,5.7994,5.8033,5.8107,5.8198,5.8209,5.8304,5.837,5.8481,5.8524,5.8599,5.8581,5.8609,5.8617,5.8624,5.863,5.845,5.8613,5.8613,5.8613,5.8612,5.8612,0,5.776,5.7803,5.7879,5.7967,5.8033,5.8026,5.8095,5.8151,5.8235,5.8296,5.8365,5.8468,5.8551,5.8602,5.8686,5.8737,5.8739,5.8758,5.8756,5.8765,5.864,5.8615,5.8756,5.8756,5.8756,5.8756,5.8756,5.8756,5.7846,5.7952,5.7974,5.8106,5.8148,5.8242,5.8283,5.8338,5.8387,5.8501,5.8571,5.8604,5.8662,5.8751,5.8828,5.8841,5.8872,5.8894,5.8906,5.8788,5.8773,5.8759,5.8736,5.89,5.89,5.9025,5.9027,5.9027]}]]